Location: Ca�n Batista
(41.4099°N, 1.7752°E)
Time: 14:42:58
(UTC+00:00)

Resurs 01 Rocket - Pass Details

Date: 03 March 2021
Orbit: 635 x 643 km, 98.0° (Epoch: 21 April)

Event Time Altitude Azimuth Distance (km) Brightness Sun altitude
Exits shadow 20:50:12 15° 339° (NNW) 1,700 4.2 -34.6°
Drops below altitude 10° 20:51:01 10° 341° (NNW) 2,030 4.6 -34.7°
Sets 20:53:15 0° 345° (NNW) 2,944 5.5 -35.1°
